TimeCST,TemperatureF,Dew PointF,Humidity,Sea Level PressureIn,VisibilityMPH,Wind Direction,Wind SpeedMPH,Gust SpeedMPH,PrecipitationIn,Events,Conditions,WindDirDegrees,DateUTC
12:02 AM,33.8,32.0,93,29.90,3.0,Calm,Calm,-,N/A,,Overcast,0,2012-11-07 06:02:00
12:17 AM,32.0,32.0,100,29.90,1.8,Calm,Calm,-,N/A,,Overcast,0,2012-11-07 06:17:00
12:42 AM,32.0,32.0,100,29.91,2.0,NNW,4.6,-,N/A,,Overcast,330,2012-11-07 06:42:00
12:49 AM,32.0,32.0,100,29.91,1.0,NNW,4.6,-,N/A,,Overcast,330,2012-11-07 06:49:00
12:50 AM,32.0,32.0,100,29.96,1.0,NNW,5.8,-,N/A,,Overcast,330,2012-11-07 06:50:00
12:58 AM,32.0,32.0,100,29.91,0.8,NNW,3.5,-,N/A,,Overcast,340,2012-11-07 06:58:00
1:45 AM,32.0,32.0,100,29.94,1.2,NNW,5.8,-,N/A,,Overcast,340,2012-11-07 07:45:00
1:54 AM,32.0,32.0,100,29.99,2.5,North,4.6,-,N/A,,Overcast,360,2012-11-07 07:54:00
2:01 AM,32.0,32.0,100,29.94,3.0,North,4.6,-,N/A,,Overcast,350,2012-11-07 08:01:00
2:39 AM,33.8,32.0,93,29.95,2.5,NNE,5.8,-,N/A,,Overcast,20,2012-11-07 08:39:00
2:54 AM,33.1,32.0,96,30.00,3.0,NNE,5.8,-,N/A,,Overcast,30,2012-11-07 08:54:00
3:02 AM,33.8,32.0,93,29.96,2.5,NNE,5.8,-,N/A,,Overcast,30,2012-11-07 09:02:00
3:23 AM,33.8,32.0,93,29.96,1.5,NE,5.8,-,N/A,,Overcast,50,2012-11-07 09:23:00
3:37 AM,33.8,32.0,93,29.96,1.0,NNE,5.8,-,N/A,,Overcast,30,2012-11-07 09:37:00
3:46 AM,33.8,32.0,93,29.96,1.5,NE,3.5,-,N/A,,Overcast,40,2012-11-07 09:46:00
3:54 AM,33.1,32.0,96,30.01,1.5,NNE,3.5,-,N/A,,Overcast,20,2012-11-07 09:54:00
4:07 AM,33.8,32.0,93,29.97,2.5,NE,3.5,-,N/A,,Overcast,40,2012-11-07 10:07:00
4:17 AM,33.8,32.0,93,29.98,3.0,NNE,3.5,-,N/A,,Overcast,30,2012-11-07 10:17:00
4:30 AM,33.8,32.0,93,29.97,1.8,ENE,5.8,-,N/A,,Overcast,70,2012-11-07 10:30:00
4:37 AM,33.8,32.0,93,29.98,0.8,East,4.6,-,N/A,,Overcast,80,2012-11-07 10:37:00
4:54 AM,32.0,32.0,100,30.03,1.8,ENE,6.9,-,N/A,,Overcast,60,2012-11-07 10:54:00
4:59 AM,32.0,32.0,100,29.98,3.0,NE,5.8,-,N/A,,Overcast,50,2012-11-07 10:59:00
5:54 AM,33.1,30.9,92,30.06,6.0,Calm,Calm,-,N/A,,Overcast,0,2012-11-07 11:54:00
6:54 AM,33.1,30.9,92,30.08,7.0,ENE,4.6,-,N/A,,Overcast,70,2012-11-07 12:54:00
7:23 AM,32.0,30.2,93,30.05,5.0,Calm,Calm,-,N/A,,Overcast,0,2012-11-07 13:23:00
7:54 AM,33.1,30.9,92,30.11,4.0,Calm,Calm,-,N/A,,Overcast,0,2012-11-07 13:54:00
8:54 AM,33.1,32.0,96,30.12,4.0,Calm,Calm,-,N/A,,Overcast,0,2012-11-07 14:54:00
9:31 AM,33.8,32.0,93,30.08,5.0,Calm,Calm,-,N/A,,Overcast,0,2012-11-07 15:31:00
9:54 AM,34.0,32.0,92,30.13,4.0,Calm,Calm,-,N/A,,Overcast,0,2012-11-07 15:54:00
10:54 AM,35.1,33.1,92,30.14,6.0,West,3.5,-,N/A,,Overcast,280,2012-11-07 16:54:00
11:54 AM,37.0,34.0,89,30.13,7.0,Variable,3.5,-,N/A,,Overcast,0,2012-11-07 17:54:00
12:54 PM,37.9,34.0,86,30.12,8.0,SW,3.5,-,N/A,,Overcast,220,2012-11-07 18:54:00
1:01 PM,39.2,33.8,81,30.07,8.0,WNW,3.5,-,N/A,,Overcast,300,2012-11-07 19:01:00
1:54 PM,41.0,34.0,76,30.10,10.0,West,5.8,-,N/A,,Overcast,270,2012-11-07 19:54:00
2:01 PM,39.2,33.8,81,30.06,10.0,West,5.8,-,N/A,,Overcast,260,2012-11-07 20:01:00
2:22 PM,39.2,33.8,81,30.07,10.0,WNW,3.5,-,N/A,,Overcast,300,2012-11-07 20:22:00
2:54 PM,39.9,33.1,77,30.11,10.0,WSW,3.5,-,N/A,,Overcast,240,2012-11-07 20:54:00
3:54 PM,39.0,32.0,76,30.12,10.0,Calm,Calm,-,N/A,,Overcast,0,2012-11-07 21:54:00
4:54 PM,39.0,33.1,79,30.13,10.0,Calm,Calm,-,N/A,,Overcast,0,2012-11-07 22:54:00
5:54 PM,37.9,34.0,86,30.14,10.0,Calm,Calm,-,N/A,,Overcast,0,2012-11-07 23:54:00
6:54 PM,37.0,34.0,89,30.15,10.0,Calm,Calm,-,N/A,,Overcast,0,2012-11-08 00:54:00
7:54 PM,36.0,33.1,89,30.14,10.0,SSW,5.8,-,N/A,,Overcast,200,2012-11-08 01:54:00
8:28 PM,35.6,33.8,93,30.10,8.0,South,8.1,-,N/A,,Overcast,180,2012-11-08 02:28:00
8:54 PM,34.0,33.1,96,30.16,7.0,South,6.9,-,N/A,,Overcast,180,2012-11-08 02:54:00
9:21 PM,33.8,33.8,100,30.11,6.0,South,6.9,-,N/A,,Overcast,180,2012-11-08 03:21:00
9:54 PM,34.0,33.1,96,30.15,5.0,South,6.9,-,N/A,,Overcast,190,2012-11-08 03:54:00
10:20 PM,33.8,33.8,100,30.11,6.0,South,6.9,-,N/A,,Overcast,190,2012-11-08 04:20:00
10:54 PM,34.0,33.1,96,30.15,6.0,South,5.8,-,N/A,,Overcast,190,2012-11-08 04:54:00
11:54 PM,34.0,32.0,92,30.14,5.0,South,5.8,-,N/A,,Overcast,180,2012-11-08 05:54:00